Location: Betzi
(47.2343°N, 9.5260°E)
Time: 00:19:04
(UTC+00:00)

NOSS 3-3 (C) - Pass Details

Date: 27 May 2022
Orbit: 783 x 1429 km, 63.4° (Epoch: 25 June)

Event Time Altitude Azimuth Distance (km) Brightness Sun altitude
Exits shadow 02:30:42 11° 215° (SW) 2,383 5.4 -9.1°
Maximum altitude 02:36:10 85° 129° (SE) 921 3.9 -8.4°
Drops below altitude 10° 02:42:43 10° 41° (NE) 2,825 8.2 -7.6°
Sets 02:45:33 0° 41° (NE) 3,883 9.6 -7.3°
